Time,TemperatureF,DewpointF,PressureIn,WindDirection,WindDirectionDegrees,WindSpeedMPH,WindSpeedGustMPH,Humidity,HourlyPrecipIn,Conditions,Clouds,dailyrainin,SoftwareType,DateUTC
2013-07-29 00:00:00,78.2,77.6,29.98,North,32767,0.0,0.0,98,0.00,,,0.00,Wunderground v.1.15,2013-07-29 05:00:00,
2013-07-29 00:05:00,78.2,77.6,29.98,North,32767,0.0,0.0,98,0.00,,,0.00,Wunderground v.1.15,2013-07-29 05:05:00,
2013-07-29 00:10:00,78.2,77.6,29.97,North,32767,0.0,0.0,98,0.00,,,0.00,Wunderground v.1.15,2013-07-29 05:10:00,
2013-07-29 00:15:00,78.1,77.5,29.97,North,32767,0.0,0.0,98,0.00,,,0.00,Wunderground v.1.15,2013-07-29 05:15:00,
2013-07-29 00:20:00,78.1,77.5,29.97,North,32767,0.0,0.0,98,0.00,,,0.00,Wunderground v.1.15,2013-07-29 05:20:00,
2013-07-29 00:25:00,78.1,77.5,29.97,North,32767,0.0,0.0,98,0.00,,,0.00,Wunderground v.1.15,2013-07-29 05:25:00,
2013-07-29 00:30:00,78.0,77.4,29.97,North,32767,0.0,0.0,98,0.00,,,0.00,Wunderground v.1.15,2013-07-29 05:30:00,
2013-07-29 00:35:00,77.9,77.3,29.97,North,32767,0.0,0.0,98,0.00,,,0.00,Wunderground v.1.15,2013-07-29 05:35:00,
2013-07-29 00:40:00,77.9,77.3,29.97,North,32767,0.0,0.0,98,0.00,,,0.00,Wunderground v.1.15,2013-07-29 05:40:00,
2013-07-29 00:50:00,77.8,77.2,29.97,North,32767,0.0,0.0,98,0.00,,,0.00,Wunderground v.1.15,2013-07-29 05:50:00,
2013-07-29 00:55:00,77.8,77.2,29.97,North,32767,0.0,0.0,98,0.00,,,0.00,Wunderground v.1.15,2013-07-29 05:55:00,
2013-07-29 01:00:00,77.7,77.1,29.97,North,32767,0.0,0.0,98,0.00,,,0.00,Wunderground v.1.15,2013-07-29 06:00:00,
2013-07-29 01:05:00,77.6,77.0,29.96,North,32767,0.0,0.0,98,0.00,,,0.00,Wunderground v.1.15,2013-07-29 06:05:00,
2013-07-29 01:10:00,77.6,77.0,29.96,North,32767,0.0,0.0,98,0.00,,,0.00,Wunderground v.1.15,2013-07-29 06:10:00,
2013-07-29 01:20:00,77.5,76.9,29.96,North,32767,0.0,0.0,98,0.00,,,0.00,Wunderground v.1.15,2013-07-29 06:20:00,
2013-07-29 01:25:00,77.5,76.9,29.96,North,32767,0.0,0.0,98,0.00,,,0.00,Wunderground v.1.15,2013-07-29 06:25:00,
2013-07-29 01:30:00,77.6,77.0,29.97,North,32767,0.0,0.0,98,0.00,,,0.00,Wunderground v.1.15,2013-07-29 06:30:00,
2013-07-29 01:35:00,77.5,76.9,29.97,North,32767,0.0,0.0,98,0.00,,,0.00,Wunderground v.1.15,2013-07-29 06:35:00,
2013-07-29 01:40:00,77.6,77.0,29.97,North,32767,0.0,0.0,98,0.00,,,0.00,Wunderground v.1.15,2013-07-29 06:40:00,
2013-07-29 01:50:00,77.5,77.2,29.97,North,32767,0.0,0.0,99,0.00,,,0.00,Wunderground v.1.15,2013-07-29 06:50:00,
2013-07-29 01:55:00,77.4,77.1,29.97,North,32767,0.0,0.0,99,0.00,,,0.00,Wunderground v.1.15,2013-07-29 06:55:00,
2013-07-29 02:00:00,77.4,76.8,29.97,North,32767,0.0,0.0,98,0.00,,,0.00,Wunderground v.1.15,2013-07-29 07:00:00,
2013-07-29 02:10:00,77.2,76.6,29.97,North,32767,0.0,0.0,98,0.00,,,0.00,Wunderground v.1.15,2013-07-29 07:10:00,
2013-07-29 02:20:00,77.1,76.8,29.97,North,32767,0.0,0.0,99,0.00,,,0.00,Wunderground v.1.15,2013-07-29 07:20:00,
2013-07-29 02:25:00,77.1,76.8,29.97,North,32767,0.0,0.0,99,0.00,,,0.00,Wunderground v.1.15,2013-07-29 07:25:00,
2013-07-29 02:30:00,77.1,76.8,29.97,North,32767,0.0,0.0,99,0.00,,,0.00,Wunderground v.1.15,2013-07-29 07:30:00,
2013-07-29 02:35:00,77.1,76.8,29.97,North,32767,0.0,0.0,99,0.00,,,0.00,Wunderground v.1.15,2013-07-29 07:35:00,
2013-07-29 02:50:00,77.2,76.9,29.97,North,32767,0.0,0.0,99,0.00,,,0.00,Wunderground v.1.15,2013-07-29 07:50:00,
2013-07-29 02:55:00,77.2,76.9,29.97,North,32767,0.0,0.0,99,0.00,,,0.00,Wunderground v.1.15,2013-07-29 07:55:00,
2013-07-29 03:00:00,77.3,76.7,29.97,North,32767,0.0,0.0,98,0.00,,,0.00,Wunderground v.1.15,2013-07-29 08:00:00,
2013-07-29 03:05:00,77.3,76.7,29.97,North,32767,0.0,0.0,98,0.00,,,0.00,Wunderground v.1.15,2013-07-29 08:05:00,
2013-07-29 03:10:00,77.3,77.0,29.97,North,32767,0.0,0.0,99,0.00,,,0.00,Wunderground v.1.15,2013-07-29 08:10:00,
2013-07-29 03:15:00,77.3,77.0,29.97,North,32767,0.0,0.0,99,0.00,,,0.00,Wunderground v.1.15,2013-07-29 08:15:00,
2013-07-29 03:20:00,77.3,77.0,29.97,North,32767,0.0,0.0,99,0.00,,,0.00,Wunderground v.1.15,2013-07-29 08:20:00,
2013-07-29 03:25:00,77.2,76.9,29.96,North,32767,0.0,0.0,99,0.00,,,0.00,Wunderground v.1.15,2013-07-29 08:25:00,
2013-07-29 03:30:00,77.1,76.8,29.97,North,32767,0.0,0.0,99,0.00,,,0.00,Wunderground v.1.15,2013-07-29 08:30:00,
2013-07-29 03:35:00,77.0,76.7,29.97,North,32767,0.0,0.0,99,0.00,,,0.00,Wunderground v.1.15,2013-07-29 08:35:00,
2013-07-29 03:40:00,77.0,76.7,29.97,North,32767,0.0,0.0,99,0.00,,,0.00,Wunderground v.1.15,2013-07-29 08:40:00,
2013-07-29 03:45:00,76.9,76.6,29.97,North,32767,0.0,0.0,99,0.00,,,0.00,Wunderground v.1.15,2013-07-29 08:45:00,
2013-07-29 03:50:00,76.9,76.6,29.97,North,32767,0.0,0.0,99,0.00,,,0.00,Wunderground v.1.15,2013-07-29 08:50:00,
2013-07-29 03:55:00,76.8,76.5,29.97,North,32767,0.0,0.0,99,0.00,,,0.00,Wunderground v.1.15,2013-07-29 08:55:00,
2013-07-29 04:00:00,76.7,76.4,29.97,North,32767,0.0,0.0,99,0.00,,,0.00,Wunderground v.1.15,2013-07-29 09:00:00,
2013-07-29 04:05:00,76.7,76.4,29.97,North,32767,0.0,0.0,99,0.00,,,0.00,Wunderground v.1.15,2013-07-29 09:05:00,
2013-07-29 04:10:00,76.6,76.3,29.97,North,32767,0.0,0.0,99,0.00,,,0.00,Wunderground v.1.15,2013-07-29 09:10:00,
2013-07-29 04:15:00,76.6,76.3,29.97,North,32767,0.0,0.0,99,0.00,,,0.00,Wunderground v.1.15,2013-07-29 09:15:00,
2013-07-29 04:20:00,76.5,76.2,29.97,North,32767,0.0,0.0,99,0.00,,,0.00,Wunderground v.1.15,2013-07-29 09:20:00,
2013-07-29 04:25:00,76.5,76.2,29.98,North,32767,0.0,0.0,99,0.00,,,0.00,Wunderground v.1.15,2013-07-29 09:25:00,
2013-07-29 04:35:00,76.4,76.1,29.98,North,32767,0.0,0.0,99,0.00,,,0.00,Wunderground v.1.15,2013-07-29 09:35:00,
2013-07-29 04:40:00,76.4,76.1,29.98,North,32767,0.0,0.0,99,0.00,,,0.00,Wunderground v.1.15,2013-07-29 09:40:00,
2013-07-29 04:45:00,76.4,76.1,29.98,North,32767,0.0,0.0,99,0.00,,,0.00,Wunderground v.1.15,2013-07-29 09:45:00,
2013-07-29 04:50:00,76.4,76.1,29.98,North,32767,0.0,0.0,99,0.00,,,0.00,Wunderground v.1.15,2013-07-29 09:50:00,
2013-07-29 04:55:00,76.4,76.1,29.98,North,32767,0.0,0.0,99,0.00,,,0.00,Wunderground v.1.15,2013-07-29 09:55:00,
2013-07-29 05:00:00,76.3,76.0,29.98,North,32767,0.0,0.0,99,0.00,,,0.00,Wunderground v.1.15,2013-07-29 10:00:00,
2013-07-29 05:05:00,76.3,76.0,29.98,North,32767,0.0,0.0,99,0.00,,,0.00,Wunderground v.1.15,2013-07-29 10:05:00,
2013-07-29 05:10:00,76.3,76.0,29.98,North,32767,0.0,0.0,99,0.00,,,0.00,Wunderground v.1.15,2013-07-29 10:10:00,
2013-07-29 05:15:00,76.2,75.9,29.99,North,32767,0.0,0.0,99,0.00,,,0.00,Wunderground v.1.15,2013-07-29 10:15:00,
2013-07-29 05:20:00,76.2,75.9,29.99,North,32767,0.0,0.0,99,0.00,,,0.00,Wunderground v.1.15,2013-07-29 10:20:00,
2013-07-29 05:30:00,76.2,75.9,29.99,North,32767,0.0,0.0,99,0.00,,,0.00,Wunderground v.1.15,2013-07-29 10:30:00,
2013-07-29 05:35:00,76.2,75.9,29.99,North,32767,0.0,0.0,99,0.00,,,0.00,Wunderground v.1.15,2013-07-29 10:35:00,
2013-07-29 05:40:00,76.2,75.9,29.99,North,32767,0.0,0.0,99,0.00,,,0.00,Wunderground v.1.15,2013-07-29 10:40:00,
2013-07-29 05:45:00,76.2,75.9,29.99,North,32767,0.0,0.0,99,0.00,,,0.00,Wunderground v.1.15,2013-07-29 10:45:00,
2013-07-29 05:50:00,76.2,75.9,30.00,North,32767,0.0,0.0,99,0.00,,,0.00,Wunderground v.1.15,2013-07-29 10:50:00,
2013-07-29 05:55:00,76.2,75.9,30.00,North,32767,0.0,0.0,99,0.00,,,0.00,Wunderground v.1.15,2013-07-29 10:55:00,
2013-07-29 06:00:00,76.2,75.9,30.00,North,32767,0.0,0.0,99,0.00,,,0.00,Wunderground v.1.15,2013-07-29 11:00:00,
2013-07-29 06:05:00,76.2,75.9,30.00,North,32767,0.0,0.0,99,0.00,,,0.00,Wunderground v.1.15,2013-07-29 11:05:00,
2013-07-29 06:10:00,76.2,75.9,30.00,North,32767,0.0,0.0,99,0.00,,,0.00,Wunderground v.1.15,2013-07-29 11:10:00,
2013-07-29 06:15:00,76.2,75.9,30.00,North,32767,0.0,0.0,99,0.00,,,0.00,Wunderground v.1.15,2013-07-29 11:15:00,
2013-07-29 06:20:00,76.2,75.9,30.00,North,32767,0.0,0.0,99,0.00,,,0.00,Wunderground v.1.15,2013-07-29 11:20:00,
2013-07-29 06:25:00,76.1,75.8,30.00,North,32767,0.0,0.0,99,0.00,,,0.00,Wunderground v.1.15,2013-07-29 11:25:00,
2013-07-29 06:30:00,76.1,75.8,30.01,North,32767,0.0,0.0,99,0.00,,,0.00,Wunderground v.1.15,2013-07-29 11:30:00,
2013-07-29 06:40:00,76.2,75.9,30.01,North,32767,0.0,0.0,99,0.00,,,0.00,Wunderground v.1.15,2013-07-29 11:40:00,
2013-07-29 06:45:00,76.2,75.9,30.02,North,32767,0.0,0.0,99,0.00,,,0.00,Wunderground v.1.15,2013-07-29 11:45:00,
2013-07-29 06:50:00,76.2,75.9,30.02,North,32767,0.0,0.0,99,0.00,,,0.00,Wunderground v.1.15,2013-07-29 11:50:00,
2013-07-29 06:55:00,76.2,75.9,30.02,North,32767,0.0,0.0,99,0.00,,,0.00,Wunderground v.1.15,2013-07-29 11:55:00,
2013-07-29 07:00:00,76.3,76.0,30.02,North,32767,0.0,0.0,99,0.00,,,0.00,Wunderground v.1.15,2013-07-29 12:00:00,
2013-07-29 07:05:00,76.5,76.2,30.02,North,32767,0.0,0.0,99,0.00,,,0.00,Wunderground v.1.15,2013-07-29 12:05:00,
2013-07-29 07:10:00,76.6,76.3,30.03,North,32767,0.0,0.0,99,0.00,,,0.00,Wunderground v.1.15,2013-07-29 12:10:00,
2013-07-29 07:15:00,76.8,76.5,30.03,North,32767,0.0,0.0,99,0.00,,,0.00,Wunderground v.1.15,2013-07-29 12:15:00,
2013-07-29 07:20:00,77.1,76.8,30.03,North,32767,0.0,0.0,99,0.00,,,0.00,Wunderground v.1.15,2013-07-29 12:20:00,
2013-07-29 07:25:00,77.3,77.0,30.03,North,32767,0.0,0.0,99,0.00,,,0.00,Wunderground v.1.15,2013-07-29 12:25:00,
2013-07-29 07:35:00,77.9,77.6,30.04,North,32767,0.0,0.0,99,0.00,,,0.00,Wunderground v.1.15,2013-07-29 12:35:00,
2013-07-29 07:40:00,78.2,77.9,30.04,North,32767,0.0,0.0,99,0.00,,,0.00,Wunderground v.1.15,2013-07-29 12:40:00,
2013-07-29 07:45:00,78.5,78.2,30.04,North,32767,0.0,0.0,99,0.00,,,0.00,Wunderground v.1.15,2013-07-29 12:45:00,
2013-07-29 07:50:00,78.4,78.1,30.04,North,32767,0.0,0.0,99,0.00,,,0.00,Wunderground v.1.15,2013-07-29 12:50:00,
2013-07-29 07:55:00,78.7,78.4,30.04,North,32767,0.0,0.0,99,0.00,,,0.00,Wunderground v.1.15,2013-07-29 12:55:00,
2013-07-29 08:00:00,79.0,78.7,30.04,North,32767,0.0,0.0,99,0.00,,,0.00,Wunderground v.1.15,2013-07-29 13:00:00,
2013-07-29 08:05:00,79.3,79.0,30.04,North,32767,0.0,0.0,99,0.00,,,0.00,Wunderground v.1.15,2013-07-29 13:05:00,
2013-07-29 08:10:00,79.4,78.8,30.04,North,32767,0.0,0.0,98,0.00,,,0.00,Wunderground v.1.15,2013-07-29 13:10:00,
2013-07-29 08:15:00,79.8,79.2,30.04,North,32767,0.0,0.0,98,0.00,,,0.00,Wunderground v.1.15,2013-07-29 13:15:00,
2013-07-29 08:20:00,80.1,79.5,30.04,North,32767,0.0,0.0,98,0.00,,,0.00,Wunderground v.1.15,2013-07-29 13:20:00,
2013-07-29 08:25:00,80.3,79.7,30.05,North,32767,0.0,0.0,98,0.00,,,0.00,Wunderground v.1.15,2013-07-29 13:25:00,
2013-07-29 08:30:00,80.6,80.0,30.05,North,32767,0.0,0.0,98,0.00,,,0.00,Wunderground v.1.15,2013-07-29 13:30:00,
2013-07-29 08:35:00,80.9,80.0,30.05,North,32767,0.0,0.0,97,0.00,,,0.00,Wunderground v.1.15,2013-07-29 13:35:00,
2013-07-29 08:55:00,82.3,81.0,30.05,North,32767,0.0,0.0,96,0.00,,,0.00,Wunderground v.1.15,2013-07-29 13:55:00,
2013-07-29 09:00:00,82.5,80.6,30.05,North,32767,0.0,0.0,94,0.00,,,0.00,Wunderground v.1.15,2013-07-29 14:00:00,
2013-07-29 09:05:00,82.8,80.9,30.05,North,32767,0.0,0.0,94,0.00,,,0.00,Wunderground v.1.15,2013-07-29 14:05:00,
2013-07-29 09:10:00,83.0,81.1,30.05,North,32767,0.0,0.0,94,0.00,,,0.00,Wunderground v.1.15,2013-07-29 14:10:00,
2013-07-29 09:15:00,83.3,81.4,30.05,North,32767,0.0,0.0,94,0.00,,,0.00,Wunderground v.1.15,2013-07-29 14:15:00,
2013-07-29 09:20:00,83.6,81.4,30.06,North,32767,0.0,0.0,93,0.00,,,0.00,Wunderground v.1.15,2013-07-29 14:20:00,
2013-07-29 09:25:00,83.9,81.7,30.06,North,32767,0.0,0.0,93,0.00,,,0.00,Wunderground v.1.15,2013-07-29 14:25:00,
2013-07-29 09:30:00,84.1,81.9,30.06,North,32767,0.0,0.0,93,0.00,,,0.00,Wunderground v.1.15,2013-07-29 14:30:00,
2013-07-29 09:35:00,84.4,81.8,30.06,N/A,-737280,0.0,-999.0,92,0.00,,,0.00,Wunderground v.1.15,2013-07-29 14:35:00,
2013-07-29 09:40:00,84.5,81.6,30.06,N/A,-737280,0.0,-999.0,91,0.00,,,0.00,Wunderground v.1.15,2013-07-29 14:40:00,
2013-07-29 09:45:00,84.7,81.8,30.06,N/A,-737280,0.0,-999.0,91,0.00,,,0.00,Wunderground v.1.15,2013-07-29 14:45:00,
2013-07-29 09:50:00,84.8,81.9,30.06,N/A,-737280,0.0,-999.0,91,0.00,,,0.00,Wunderground v.1.15,2013-07-29 14:50:00,
2013-07-29 09:55:00,84.9,82.0,30.06,N/A,-737280,0.0,-999.0,91,0.00,,,0.00,Wunderground v.1.15,2013-07-29 14:55:00,
2013-07-29 10:00:00,85.2,82.3,30.06,N/A,-737280,0.0,-999.0,91,0.00,,,0.00,Wunderground v.1.15,2013-07-29 15:00:00,
2013-07-29 10:05:00,85.5,82.2,30.06,N/A,-737280,0.0,-999.0,90,0.00,,,0.00,Wunderground v.1.15,2013-07-29 15:05:00,
2013-07-29 10:10:00,86.0,82.7,30.06,N/A,-737280,0.0,-999.0,90,0.00,,,0.00,Wunderground v.1.15,2013-07-29 15:10:00,
2013-07-29 10:15:00,86.3,82.7,30.06,N/A,-737280,0.0,-999.0,89,0.00,,,0.00,Wunderground v.1.15,2013-07-29 15:15:00,
2013-07-29 10:20:00,86.3,82.3,30.06,N/A,-737280,0.0,-999.0,88,0.00,,,0.00,Wunderground v.1.15,2013-07-29 15:20:00,
2013-07-29 10:25:00,86.2,82.6,30.06,N/A,-737280,0.0,-999.0,89,0.00,,,0.00,Wunderground v.1.15,2013-07-29 15:25:00,
2013-07-29 10:30:00,86.0,81.7,30.07,N/A,-737280,0.0,-999.0,87,0.00,,,0.00,Wunderground v.1.15,2013-07-29 15:30:00,
2013-07-29 10:35:00,85.8,82.2,30.06,N/A,-737280,0.0,-999.0,89,0.00,,,0.00,Wunderground v.1.15,2013-07-29 15:35:00,
2013-07-29 10:40:00,85.6,81.6,30.06,N/A,-737280,0.0,-999.0,88,0.00,,,0.00,Wunderground v.1.15,2013-07-29 15:40:00,
2013-07-29 10:45:00,85.5,81.5,30.06,N/A,-737280,0.0,-999.0,88,0.00,,,0.00,Wunderground v.1.15,2013-07-29 15:45:00,
2013-07-29 10:50:00,85.5,81.9,30.06,N/A,-737280,0.0,-999.0,89,0.00,,,0.00,Wunderground v.1.15,2013-07-29 15:50:00,
2013-07-29 10:55:00,85.5,81.9,30.06,N/A,-737280,0.0,-999.0,89,0.00,,,0.00,Wunderground v.1.15,2013-07-29 15:55:00,
2013-07-29 11:00:00,85.7,82.1,30.06,N/A,-737280,0.0,-999.0,89,0.00,,,0.00,Wunderground v.1.15,2013-07-29 16:00:00,
2013-07-29 11:05:00,86.4,82.4,30.05,N/A,-737280,0.0,-999.0,88,0.00,,,0.00,Wunderground v.1.15,2013-07-29 16:05:00,
2013-07-29 11:10:00,86.6,82.3,30.05,N/A,-737280,0.0,-999.0,87,0.00,,,0.00,Wunderground v.1.15,2013-07-29 16:10:00,
2013-07-29 11:15:00,86.8,82.8,30.05,N/A,-737280,0.0,-999.0,88,0.00,,,0.00,Wunderground v.1.15,2013-07-29 16:15:00,
2013-07-29 11:20:00,87.0,82.7,30.05,N/A,-737280,0.0,-999.0,87,0.00,,,0.00,Wunderground v.1.15,2013-07-29 16:20:00,
2013-07-29 11:25:00,87.2,81.8,30.05,N/A,-737280,0.0,-999.0,84,0.00,,,0.00,Wunderground v.1.15,2013-07-29 16:25:00,
2013-07-29 11:30:00,87.4,82.3,30.05,N/A,-737280,0.0,-999.0,85,0.00,,,0.00,Wunderground v.1.15,2013-07-29 16:30:00,
2013-07-29 11:35:00,87.5,82.8,30.05,N/A,-737280,0.0,-999.0,86,0.00,,,0.00,Wunderground v.1.15,2013-07-29 16:35:00,
2013-07-29 11:40:00,87.9,82.8,30.05,N/A,-737280,0.0,-999.0,85,0.00,,,0.00,Wunderground v.1.15,2013-07-29 16:40:00,
2013-07-29 11:45:00,88.5,83.4,30.05,N/A,-737280,0.0,-999.0,85,0.00,,,0.00,Wunderground v.1.15,2013-07-29 16:45:00,
2013-07-29 11:50:00,88.7,82.1,30.05,N/A,-737280,0.0,-999.0,81,0.00,,,0.00,Wunderground v.1.15,2013-07-29 16:50:00,
2013-07-29 11:55:00,89.3,83.5,30.05,N/A,-737280,0.0,-999.0,83,0.00,,,0.00,Wunderground v.1.15,2013-07-29 16:55:00,
2013-07-29 12:00:00,89.8,82.4,30.05,N/A,-737280,0.0,-999.0,79,0.00,,,0.00,Wunderground v.1.15,2013-07-29 17:00:00,
2013-07-29 12:05:00,89.9,82.9,30.05,N/A,-737280,0.0,-999.0,80,0.00,,,0.00,Wunderground v.1.15,2013-07-29 17:05:00,
2013-07-29 12:10:00,90.0,83.8,30.05,N/A,-737280,0.0,-999.0,82,0.00,,,0.00,Wunderground v.1.15,2013-07-29 17:10:00,
2013-07-29 12:15:00,90.0,82.6,30.05,N/A,-737280,0.0,-999.0,79,0.00,,,0.00,Wunderground v.1.15,2013-07-29 17:15:00,
2013-07-29 12:20:00,90.0,83.8,30.05,N/A,-737280,0.0,-999.0,82,0.00,,,0.00,Wunderground v.1.15,2013-07-29 17:20:00,
2013-07-29 12:25:00,89.7,83.5,30.05,N/A,-737280,0.0,-999.0,82,0.00,,,0.00,Wunderground v.1.15,2013-07-29 17:25:00,
2013-07-29 12:30:00,89.1,82.5,30.05,N/A,-737280,0.0,-999.0,81,0.00,,,0.00,Wunderground v.1.15,2013-07-29 17:30:00,
2013-07-29 12:35:00,88.5,82.7,30.05,North,32767,0.0,0.0,83,0.00,,,0.00,Wunderground v.1.15,2013-07-29 17:35:00,
2013-07-29 12:40:00,88.6,82.8,30.05,North,32767,0.0,0.0,83,0.00,,,0.00,Wunderground v.1.15,2013-07-29 17:40:00,
2013-07-29 12:45:00,88.7,83.6,30.05,North,32767,0.0,0.0,85,0.00,,,0.00,Wunderground v.1.15,2013-07-29 17:45:00,
2013-07-29 12:49:00,88.6,83.1,30.05,North,32767,0.0,0.0,84,0.00,,,0.00,Wunderground v.1.15,2013-07-29 17:49:00,
2013-07-29 12:55:00,88.1,82.7,30.05,North,32767,0.0,0.0,84,0.00,,,0.00,Wunderground v.1.15,2013-07-29 17:55:00,
2013-07-29 13:10:00,87.9,83.2,30.05,North,32767,0.0,0.0,86,0.00,,,0.00,Wunderground v.1.15,2013-07-29 18:10:00,
2013-07-29 13:15:00,87.6,82.9,30.05,North,32767,0.0,0.0,86,0.00,,,0.00,Wunderground v.1.15,2013-07-29 18:15:00,
2013-07-29 13:20:00,87.0,82.7,30.05,North,32767,0.0,0.0,87,0.00,,,0.00,Wunderground v.1.15,2013-07-29 18:20:00,
2013-07-29 13:25:00,86.6,82.6,30.05,North,32767,0.0,0.0,88,0.00,,,0.00,Wunderground v.1.15,2013-07-29 18:25:00,
2013-07-29 13:30:00,86.8,83.2,30.05,North,32767,0.0,0.0,89,0.00,,,0.00,Wunderground v.1.15,2013-07-29 18:30:00,
2013-07-29 13:35:00,87.3,83.0,30.04,North,32767,0.0,0.0,87,0.00,,,0.00,Wunderground v.1.15,2013-07-29 18:35:00,
2013-07-29 13:40:00,88.3,84.3,30.04,North,32767,0.0,0.0,88,0.00,,,0.00,Wunderground v.1.15,2013-07-29 18:40:00,
2013-07-29 13:45:00,88.9,83.8,30.04,North,32767,0.0,0.0,85,0.00,,,0.00,Wunderground v.1.15,2013-07-29 18:45:00,
2013-07-29 13:50:00,89.1,84.0,30.04,North,32767,0.0,0.0,85,0.00,,,0.00,Wunderground v.1.15,2013-07-29 18:50:00,
2013-07-29 13:55:00,88.8,83.3,30.04,North,32767,0.0,0.0,84,0.00,,,0.00,Wunderground v.1.15,2013-07-29 18:55:00,
2013-07-29 14:05:00,88.3,83.9,30.04,North,32767,0.0,0.0,87,0.32,,,0.02,Wunderground v.1.15,2013-07-29 19:05:00,
2013-07-29 14:10:00,87.4,83.8,30.05,North,32767,0.0,0.0,89,0.17,,,0.04,Wunderground v.1.15,2013-07-29 19:10:00,
2013-07-29 14:15:00,86.0,83.4,30.05,North,32767,0.0,0.0,92,0.82,,,0.11,Wunderground v.1.15,2013-07-29 19:15:00,
2013-07-29 14:20:00,83.9,81.7,30.04,North,32767,0.0,0.0,93,1.06,,,0.19,Wunderground v.1.15,2013-07-29 19:20:00,
2013-07-29 14:25:00,82.5,80.6,30.04,North,32767,0.0,0.0,94,1.21,,,0.29,Wunderground v.1.15,2013-07-29 19:25:00,
2013-07-29 14:30:00,81.5,79.9,30.04,North,32767,0.0,0.0,95,0.25,,,0.33,Wunderground v.1.15,2013-07-29 19:30:00,
2013-07-29 14:35:00,81.2,80.3,30.04,North,32767,0.0,0.0,97,0.08,,,0.33,Wunderground v.1.15,2013-07-29 19:35:00,
2013-07-29 14:50:00,82.5,81.6,30.03,North,32767,0.0,0.0,97,0.00,,,0.33,Wunderground v.1.15,2013-07-29 19:50:00,
2013-07-29 14:55:00,83.4,82.8,30.04,North,32767,0.0,0.0,98,0.00,,,0.33,Wunderground v.1.15,2013-07-29 19:55:00,
2013-07-29 15:00:00,84.1,83.5,30.04,North,32767,0.0,0.0,98,0.00,,,0.33,Wunderground v.1.15,2013-07-29 20:00:00,
2013-07-29 15:10:00,83.6,82.3,30.04,North,32767,0.0,0.0,96,0.00,,,0.33,Wunderground v.1.15,2013-07-29 20:10:00,
2013-07-29 15:20:00,84.7,83.4,30.03,North,32767,0.0,0.0,96,0.00,,,0.33,Wunderground v.1.15,2013-07-29 20:20:00,
2013-07-29 15:30:00,85.9,84.3,30.04,North,32767,0.0,0.0,95,0.00,,,0.33,Wunderground v.1.15,2013-07-29 20:30:00,
2013-07-29 15:35:00,86.1,83.5,30.04,North,32767,0.0,0.0,92,0.00,,,0.33,Wunderground v.1.15,2013-07-29 20:35:00,
2013-07-29 15:40:00,86.4,84.1,30.03,North,32767,0.0,0.0,93,0.00,,,0.33,Wunderground v.1.15,2013-07-29 20:40:00,
2013-07-29 15:45:00,86.6,83.7,30.03,North,32767,0.0,0.0,91,0.00,,,0.33,Wunderground v.1.15,2013-07-29 20:45:00,
2013-07-29 15:50:00,86.8,83.9,30.03,North,32767,0.0,0.0,91,0.00,,,0.33,Wunderground v.1.15,2013-07-29 20:50:00,
2013-07-29 15:55:00,87.0,84.1,30.03,North,32767,0.0,0.0,91,0.00,,,0.33,Wunderground v.1.15,2013-07-29 20:55:00,
2013-07-29 16:05:00,87.0,83.7,30.03,North,32767,0.0,0.0,90,0.00,,,0.33,Wunderground v.1.15,2013-07-29 21:05:00,
2013-07-29 16:10:00,86.9,83.3,30.03,North,32767,0.0,0.0,89,0.00,,,0.33,Wunderground v.1.15,2013-07-29 21:10:00,
2013-07-29 16:15:00,87.0,83.4,30.03,North,32767,0.0,0.0,89,0.00,,,0.33,Wunderground v.1.15,2013-07-29 21:15:00,
2013-07-29 16:20:00,87.0,83.0,30.03,North,32767,0.0,0.0,88,0.00,,,0.33,Wunderground v.1.15,2013-07-29 21:20:00,
2013-07-29 16:25:00,87.2,83.2,30.04,North,32767,0.0,0.0,88,0.00,,,0.33,Wunderground v.1.15,2013-07-29 21:25:00,
2013-07-29 16:30:00,87.4,83.4,30.03,North,32767,0.0,0.0,88,0.00,,,0.33,Wunderground v.1.15,2013-07-29 21:30:00,
2013-07-29 16:35:00,87.5,83.9,30.04,North,32767,0.0,0.0,89,0.00,,,0.33,Wunderground v.1.15,2013-07-29 21:35:00,
2013-07-29 16:40:00,87.6,83.2,30.04,North,32767,0.0,0.0,87,0.00,,,0.33,Wunderground v.1.15,2013-07-29 21:40:00,
2013-07-29 16:45:00,87.7,83.3,30.04,North,32767,0.0,0.0,87,0.00,,,0.33,Wunderground v.1.15,2013-07-29 21:45:00,
2013-07-29 16:50:00,87.7,83.0,30.04,North,32767,0.0,0.0,86,0.00,,,0.33,Wunderground v.1.15,2013-07-29 21:50:00,
2013-07-29 16:55:00,87.7,83.3,30.04,North,32767,0.0,0.0,87,0.00,,,0.33,Wunderground v.1.15,2013-07-29 21:55:00,
2013-07-29 17:00:00,87.7,84.1,30.04,North,32767,0.0,0.0,89,0.00,,,0.33,Wunderground v.1.15,2013-07-29 22:00:00,
2013-07-29 17:05:00,87.5,83.1,30.04,North,32767,0.0,0.0,87,0.00,,,0.33,Wunderground v.1.15,2013-07-29 22:05:00,
2013-07-29 17:10:00,87.4,82.7,30.04,North,32767,0.0,0.0,86,0.00,,,0.33,Wunderground v.1.15,2013-07-29 22:10:00,
2013-07-29 17:15:00,87.4,83.1,30.04,North,32767,0.0,0.0,87,0.00,,,0.33,Wunderground v.1.15,2013-07-29 22:15:00,
2013-07-29 17:20:00,87.3,83.0,30.04,North,32767,0.0,0.0,87,0.00,,,0.33,Wunderground v.1.15,2013-07-29 22:20:00,
2013-07-29 17:25:00,87.3,83.0,30.04,North,32767,0.0,0.0,87,0.00,,,0.33,Wunderground v.1.15,2013-07-29 22:25:00,
2013-07-29 17:30:00,87.2,82.9,30.04,North,32767,0.0,0.0,87,0.00,,,0.33,Wunderground v.1.15,2013-07-29 22:30:00,
2013-07-29 17:35:00,87.0,82.3,30.03,North,32767,0.0,0.0,86,0.00,,,0.33,Wunderground v.1.15,2013-07-29 22:35:00,
2013-07-29 17:40:00,86.8,82.5,30.03,North,32767,0.0,0.0,87,0.00,,,0.33,Wunderground v.1.15,2013-07-29 22:40:00,
2013-07-29 17:45:00,86.5,82.5,30.03,North,32767,0.0,0.0,88,0.00,,,0.33,Wunderground v.1.15,2013-07-29 22:45:00,
2013-07-29 17:50:00,86.4,82.4,30.03,North,32767,0.0,0.0,88,0.00,,,0.33,Wunderground v.1.15,2013-07-29 22:50:00,
2013-07-29 17:55:00,86.5,82.9,30.03,North,32767,0.0,0.0,89,0.00,,,0.33,Wunderground v.1.15,2013-07-29 22:55:00,
2013-07-29 18:00:00,86.5,82.5,30.04,North,32767,0.0,0.0,88,0.00,,,0.33,Wunderground v.1.15,2013-07-29 23:00:00,
2013-07-29 18:05:00,86.5,82.2,30.04,North,32767,0.0,0.0,87,0.00,,,0.33,Wunderground v.1.15,2013-07-29 23:05:00,
2013-07-29 18:10:00,86.5,82.2,30.04,North,32767,0.0,0.0,87,0.00,,,0.33,Wunderground v.1.15,2013-07-29 23:10:00,
2013-07-29 18:15:00,86.4,82.4,30.04,North,32767,0.0,0.0,88,0.00,,,0.33,Wunderground v.1.15,2013-07-29 23:15:00,
2013-07-29 18:20:00,86.3,82.7,30.04,North,32767,0.0,0.0,89,0.00,,,0.33,Wunderground v.1.15,2013-07-29 23:20:00,
2013-07-29 18:25:00,86.3,82.7,30.04,North,32767,0.0,0.0,89,0.00,,,0.33,Wunderground v.1.15,2013-07-29 23:25:00,
2013-07-29 18:35:00,86.3,82.7,30.05,North,32767,0.0,0.0,89,0.00,,,0.33,Wunderground v.1.15,2013-07-29 23:35:00,
2013-07-29 18:40:00,86.2,82.2,30.04,North,32767,0.0,0.0,88,0.00,,,0.33,Wunderground v.1.15,2013-07-29 23:40:00,
2013-07-29 18:45:00,86.2,82.2,30.04,North,32767,0.0,0.0,88,0.00,,,0.33,Wunderground v.1.15,2013-07-29 23:45:00,
2013-07-29 18:50:00,86.1,82.5,30.05,North,32767,0.0,0.0,89,0.00,,,0.33,Wunderground v.1.15,2013-07-29 23:50:00,
2013-07-29 18:55:00,85.9,81.9,30.04,North,32767,0.0,0.0,88,0.00,,,0.33,Wunderground v.1.15,2013-07-29 23:55:00,
2013-07-29 19:00:00,85.8,82.2,30.05,North,32767,0.0,0.0,89,0.00,,,0.33,Wunderground v.1.15,2013-07-30 00:00:00,
2013-07-29 19:05:00,85.6,82.0,30.05,North,32767,0.0,0.0,89,0.00,,,0.33,Wunderground v.1.15,2013-07-30 00:05:00,
2013-07-29 19:10:00,85.5,81.9,30.05,North,32767,0.0,0.0,89,0.00,,,0.33,Wunderground v.1.15,2013-07-30 00:10:00,
2013-07-29 19:20:00,85.2,81.9,30.05,North,32767,0.0,0.0,90,0.00,,,0.33,Wunderground v.1.15,2013-07-30 00:20:00,
2013-07-29 19:25:00,85.1,81.5,30.05,North,32767,0.0,0.0,89,0.00,,,0.33,Wunderground v.1.15,2013-07-30 00:25:00,
2013-07-29 19:30:00,84.9,81.6,30.05,North,32767,0.0,0.0,90,0.00,,,0.33,Wunderground v.1.15,2013-07-30 00:30:00,
2013-07-29 19:35:00,84.6,81.3,30.05,North,32767,0.0,0.0,90,0.00,,,0.33,Wunderground v.1.15,2013-07-30 00:35:00,
2013-07-29 19:40:00,84.5,81.2,30.05,North,32767,0.0,0.0,90,0.00,,,0.33,Wunderground v.1.15,2013-07-30 00:40:00,
2013-07-29 19:50:00,84.1,81.2,30.05,North,32767,0.0,0.0,91,0.00,,,0.33,Wunderground v.1.15,2013-07-30 00:50:00,
2013-07-29 19:55:00,84.0,81.1,30.05,North,32767,0.0,0.0,91,0.00,,,0.33,Wunderground v.1.15,2013-07-30 00:55:00,
2013-07-29 20:00:00,83.9,81.3,30.05,North,32767,0.0,0.0,92,0.00,,,0.33,Wunderground v.1.15,2013-07-30 01:00:00,
2013-07-29 20:05:00,83.6,81.0,30.05,North,32767,0.0,0.0,92,0.00,,,0.33,Wunderground v.1.15,2013-07-30 01:05:00,
2013-07-29 20:10:00,83.5,80.9,30.05,North,32767,0.0,0.0,92,0.00,,,0.33,Wunderground v.1.15,2013-07-30 01:10:00,
2013-07-29 20:15:00,83.4,80.8,30.06,North,32767,0.0,0.0,92,0.00,,,0.33,Wunderground v.1.15,2013-07-30 01:15:00,
2013-07-29 20:25:00,83.3,81.1,30.06,North,32767,0.0,0.0,93,0.00,,,0.33,Wunderground v.1.15,2013-07-30 01:25:00,
2013-07-29 20:30:00,83.1,80.9,30.06,North,32767,0.0,0.0,93,0.00,,,0.33,Wunderground v.1.15,2013-07-30 01:30:00,
2013-07-29 20:35:00,82.9,80.7,30.06,North,32767,0.0,0.0,93,0.00,,,0.33,Wunderground v.1.15,2013-07-30 01:35:00,
2013-07-29 20:40:00,82.8,80.6,30.06,North,32767,0.0,0.0,93,0.00,,,0.33,Wunderground v.1.15,2013-07-30 01:40:00,
2013-07-29 20:45:00,82.7,80.5,30.06,North,32767,0.0,0.0,93,0.00,,,0.33,Wunderground v.1.15,2013-07-30 01:45:00,
2013-07-29 20:50:00,82.7,80.5,30.06,North,32767,0.0,0.0,93,0.00,,,0.33,Wunderground v.1.15,2013-07-30 01:50:00,
2013-07-29 20:55:00,82.7,80.8,30.06,North,32767,0.0,0.0,94,0.00,,,0.33,Wunderground v.1.15,2013-07-30 01:55:00,
2013-07-29 21:00:00,82.6,80.4,30.07,North,32767,0.0,0.0,93,0.00,,,0.33,Wunderground v.1.15,2013-07-30 02:00:00,
2013-07-29 21:05:00,82.5,80.3,30.07,North,32767,0.0,0.0,93,0.00,,,0.33,Wunderground v.1.15,2013-07-30 02:05:00,
2013-07-29 21:10:00,82.5,80.6,30.07,North,32767,0.0,0.0,94,0.00,,,0.33,Wunderground v.1.15,2013-07-30 02:10:00,
2013-07-29 21:15:00,82.6,80.7,30.07,North,32767,0.0,0.0,94,0.00,,,0.33,Wunderground v.1.15,2013-07-30 02:15:00,
2013-07-29 21:25:00,82.6,80.7,30.08,North,32767,0.0,0.0,94,0.00,,,0.33,Wunderground v.1.15,2013-07-30 02:25:00,
2013-07-29 21:30:00,82.5,80.3,30.08,North,32767,0.0,0.0,93,0.00,,,0.33,Wunderground v.1.15,2013-07-30 02:30:00,
2013-07-29 21:35:00,82.6,80.4,30.08,North,32767,0.0,0.0,93,0.00,,,0.33,Wunderground v.1.15,2013-07-30 02:35:00,
2013-07-29 21:45:00,82.6,80.4,30.08,North,32767,0.0,0.0,93,0.00,,,0.33,Wunderground v.1.15,2013-07-30 02:45:00,
2013-07-29 21:50:00,82.6,80.4,30.08,North,32767,0.0,0.0,93,0.00,,,0.33,Wunderground v.1.15,2013-07-30 02:50:00,
2013-07-29 21:55:00,82.6,80.4,30.08,North,32767,0.0,0.0,93,0.00,,,0.33,Wunderground v.1.15,2013-07-30 02:55:00,
2013-07-29 22:00:00,82.6,80.4,30.08,North,32767,0.0,0.0,93,0.00,,,0.33,Wunderground v.1.15,2013-07-30 03:00:00,
2013-07-29 22:05:00,82.6,80.4,30.08,North,32767,0.0,0.0,93,0.00,,,0.33,Wunderground v.1.15,2013-07-30 03:05:00,
2013-07-29 22:10:00,82.6,80.4,30.09,North,32767,0.0,0.0,93,0.00,,,0.33,Wunderground v.1.15,2013-07-30 03:10:00,
2013-07-29 22:15:00,82.7,80.1,30.08,North,32767,0.0,0.0,92,0.00,,,0.33,Wunderground v.1.15,2013-07-30 03:15:00,
2013-07-29 22:20:00,82.6,80.0,30.08,North,32767,0.0,0.0,92,0.00,,,0.33,Wunderground v.1.15,2013-07-30 03:20:00,
2013-07-29 22:25:00,82.6,80.0,30.08,North,32767,0.0,0.0,92,0.00,,,0.33,Wunderground v.1.15,2013-07-30 03:25:00,
2013-07-29 22:30:00,82.6,80.0,30.08,North,32767,0.0,0.0,92,0.00,,,0.33,Wunderground v.1.15,2013-07-30 03:30:00,
2013-07-29 22:35:00,82.6,80.0,30.08,North,32767,0.0,0.0,92,0.00,,,0.33,Wunderground v.1.15,2013-07-30 03:35:00,
2013-07-29 22:40:00,82.5,79.9,30.09,North,32767,0.0,0.0,92,0.00,,,0.33,Wunderground v.1.15,2013-07-30 03:40:00,
2013-07-29 22:45:00,82.5,79.9,30.09,North,32767,0.0,0.0,92,0.00,,,0.33,Wunderground v.1.15,2013-07-30 03:45:00,
2013-07-29 22:55:00,82.5,79.9,30.08,North,32767,0.0,0.0,92,0.00,,,0.33,Wunderground v.1.15,2013-07-30 03:55:00,
2013-07-29 23:05:00,82.5,79.6,30.09,North,32767,0.0,0.0,91,0.00,,,0.33,Wunderground v.1.15,2013-07-30 04:05:00,
2013-07-29 23:10:00,82.5,79.9,30.09,North,32767,0.0,0.0,92,0.00,,,0.33,Wunderground v.1.15,2013-07-30 04:10:00,
2013-07-29 23:15:00,82.5,79.9,30.09,North,32767,0.0,0.0,92,0.00,,,0.33,Wunderground v.1.15,2013-07-30 04:15:00,
2013-07-29 23:20:00,82.4,79.8,30.09,North,32767,0.0,0.0,92,0.00,,,0.33,Wunderground v.1.15,2013-07-30 04:20:00,
2013-07-29 23:25:00,82.3,79.7,30.09,North,32767,0.0,0.0,92,0.00,,,0.33,Wunderground v.1.15,2013-07-30 04:25:00,
2013-07-29 23:30:00,82.3,79.7,30.09,North,32767,0.0,0.0,92,0.00,,,0.33,Wunderground v.1.15,2013-07-30 04:30:00,
2013-07-29 23:35:00,82.3,79.7,30.10,North,32767,0.0,0.0,92,0.00,,,0.33,Wunderground v.1.15,2013-07-30 04:35:00,
2013-07-29 23:40:00,82.3,79.7,30.10,North,32767,0.0,0.0,92,0.00,,,0.33,Wunderground v.1.15,2013-07-30 04:40:00,
2013-07-29 23:45:00,82.3,79.7,30.09,North,32767,0.0,0.0,92,0.00,,,0.33,Wunderground v.1.15,2013-07-30 04:45:00,
2013-07-29 23:50:00,82.2,79.6,30.09,North,32767,0.0,0.0,92,0.00,,,0.33,Wunderground v.1.15,2013-07-30 04:50:00,
2013-07-29 23:55:00,82.2,79.6,30.09,North,32767,0.0,0.0,92,0.00,,,0.33,Wunderground v.1.15,2013-07-30 04:55:00,